Hourly Weather Roundup
Issued by NWS Central Illinois

Home | Current Version | Previous Version | Text Only | Print | Product List | Glossary On
Versions: 1 2 3 4 5 6 7 8 9 10 11 12 13 14 15 16 17 18 19 20 21 22 23 24 25 26 27 28 29 30 31 32 33 34 35 36 37 38 39 40 41 42 43 44 45 46 47 48 49 50
000
NZUS43 KILX 310410
HWRILX

AREA WEATHER ROUNDUP
NATIONAL WEATHER SERVICE, LINCOLN IL
1100 PM CDT WED JUL 30 2014


CITY           SKY/WX    TMP DP  RH WIND       PRES   REMARKS
BLOOMINGTON    CLEAR     67  57  70 W6        30.07S
CHAMPAIGN      CLEAR     63  60  90 SW6       30.06S
DECATUR        CLEAR     67  60  78 CALM      30.07S
FLORA          PTCLDY    62  60  92 SW3       30.08R
GALESBURG      CLEAR     62  59  91 CALM      30.07R
JACKSONVILLE   CLEAR     63  61  93 CALM      30.08S
LACON          CLEAR     63  59  89 CALM      30.05R
LAWRENCEVILLE  PTCLDY    66  62  87 CALM      30.07R
LITCHFIELD     PTCLDY    62  59  90 CALM      30.07S
$$


CITY           SKY/WX    TMP DP  RH WIND       PRES   REMARKS
LINCOLN        CLEAR     67  60  78 CALM      30.04S
MACOMB           N/A     61  59  95 W3        30.09R
MATTOON        CLEAR     64  59  83 CALM      30.06S
MT CARMEL AP   PTCLDY    66  63  88 W5        30.07R
OLNEY-NOBLE AP PTCLDY    63  61  94 CALM      30.08R
PARIS          CLEAR     60  59  97 CALM      30.07S
PEORIA         CLEAR     69  59  70 CALM      30.06S
PONTIAC        CLEAR     63  61  94 CALM      30.04F
RANTOUL        CLEAR     65  59  82 CALM      30.07R
ROBINSON       PTCLDY    64  62  93 CALM      30.08R
SPRINGFIELD    CLEAR     64  62  93 SW5       30.07R
TAYLORVILLE    CLEAR     63  61  94 CALM      30.07R
$$

...REGIONAL REPORTS...


CITY           SKY/WX    TMP DP  RH WIND       PRES   REMARKS
CHICAGO O`HARE CLEAR     64  55  72 SE6       30.04R
KANKAKEE       PTCLDY    64  61  88 CALM      30.05S
MOLINE         CLEAR     63  58  83 S5        30.05S
MOUNT VERNON   MOCLDY    63  55  77 CALM      30.09R
PITTSFIELD     CLEAR     65  62  90 CALM      30.09R
QUINCY         CLEAR     68  59  73 CALM      30.08R
ROCKFORD       CLEAR     62  55  77 S3        30.06F
$$


CITY           SKY/WX    TMP DP  RH WIND       PRES   REMARKS
BURLINGTON     CLEAR     66  61  84 NW5       30.07R
CEDAR RAPIDS   CLEAR     64  61  90 NW5       30.06S
DES MOINES     CLEAR     70  56  61 CALM      30.09S
KIRKSVILLE     CLEAR     60  58  92 CALM      30.10S
OTTUMWA        CLEAR     62  58  86 CALM      30.08S
ST LOUIS       MOCLDY    76  59  55 E3        30.07S
$$


CITY           SKY/WX    TMP DP  RH WIND       PRES   REMARKS
TERRE HAUTE    CLEAR     61  57  87 CALM      30.06S
EVANSVILLE     MOCLDY    70  60  70 W3        30.08S
INDIANAPOLIS   PTCLDY    64  61  90 SW6       30.05S
LAFAYETTE      CLEAR     62  60  93 CALM      30.04S
MADISON        CLEAR     63  52  67 CALM      30.03F
MILWAUKEE      MOCLDY    62  54  74 S3        30.02S
$$





USA.gov is the U.S. government's official web portal to all federal, state and local government web resources and services.